Location: Köln
(50.9375°N, 6.9603°E)
Time: 17:36:12
(UTC+02:00)

Falcon 9 debris - Visible Passes

Search period start: 19 September 2019 00:00
Search period end: 29 September 2019 00:00
Orbit: 432 x 437 km, 53.0° (Epoch: 18 September)

Date Brightness Start Highest point End Pass type
(mag) Time Alt. Az. Time Alt. Az. Time Alt. Az.
19 Sep 5.9 03:57:04 17° ENE 03:57:04 17° ENE 03:58:01 10° ENE visible
19 Sep 3.4 05:30:21 33° WNW 05:31:40 61° N 05:35:08 10° ENE visible
20 Sep 3.6 04:49:33 59° NNE 04:49:33 59° NNE 04:52:38 10° ENE visible
20 Sep 3.4 06:22:56 10° WNW 06:26:25 69° NNE 06:29:53 10° E visible
21 Sep 5.6 04:08:47 22° ENE 04:08:47 22° ENE 04:10:10 10° ENE visible
21 Sep 3.5 05:42:03 25° WNW 05:43:55 63° N 05:47:23 10° E visible
22 Sep 3.5 05:01:20 59° N 05:01:24 60° N 05:04:52 10° E visible
22 Sep 3.2 06:35:04 10° WNW 06:38:33 72° SSW 06:42:00 10° ESE visible
23 Sep 5.3 04:20:39 26° ENE 04:20:39 26° ENE 04:22:20 10° E visible
23 Sep 3.1 05:53:56 22° WNW 05:56:05 88° SSW 05:59:34 10° ESE visible
24 Sep 3.1 05:13:21 72° NW 05:13:36 78° NNE 05:17:05 10° ESE visible
25 Sep 5.1 04:32:50 27° E 04:32:50 27° E 04:34:35 10° E visible
25 Sep 3.6 06:06:09 21° W 06:08:04 43° SSW 06:11:23 10° SE visible
26 Sep 3.2 05:25:47 57° SSW 05:25:47 57° SSW 05:29:03 10° SE visible
27 Sep 5.4 04:45:34 19° ESE 04:45:34 19° ESE 04:46:40 10° ESE visible
27 Sep 4.7 06:18:54 17° WSW 06:19:48 19° SW 06:22:17 10° S visible
28 Sep 5.0 05:38:52 19° S 05:38:52 19° S 05:40:21 10° SSE visible
